THORAD AGENA D DEB, 4654

Orbit data source: Space-Track

THORAD AGENA D DEB, 4654 is space debris in SSO originally from a launch on Wed, 08 Apr 1970 UTC launched from the Air Force Western Test Range (AFWTR). Debris objects in space refer to the collection of defunct objects orbiting the Earth. Examples of debris include non-operational satellites, rocket bodies, and fragments generated from explosions, collisions, or faulty payload assembly.

Loading next visibility...
Identifier
4654, 1970-025AN
Orbit
SSO
Country
Flag of USUS
Related business
Manufacturer
Unknown
Mission
Spacecraft
Bus & Motor
Unknown
Mass
Unknown
Launch date (UTC)
1970-04-08 (55 years ago)
Launch vehicle
Unknown
Launch site
Air Force Western Test Range (AFWTR)
Object type
Payload
Rocket body
Debris
Shape & HBR
Unknown
Radar Cross Section
Small (<0.1 m²)

Expand to show TLE details & history
Last TLE update: 17 hours ago

TLE from 17 hours ago
0 THORAD AGENA D DEB
1 04654U 70025AN  25259.90769616  .00002042  00000-0  10787-2 0  9993
2 04654 100.0152  34.0551 0028224 106.7640 253.6629 14.14980815801261
Epoch: 2025-09-16T21:47Z
TLE epoch observation values (Epoch: 2025-09-16T21:47:04.948Z)
Latitude
-0.00004°
Longitude
71.19323°
Altitude
851.027 km
Speed
7.424 km/s
True Right ascension
02h 16m 13s
True Declination
0° 00' 00"
Sunlit
Object was in full shadow at epoch
Visualization orbit readout
Latitude
Unknown
Longitude
Unknown
Altitude
Unknown
Speed
Unknown
Apparent Right ascension
Unknown
Apparent Declination
Unknown
Sunlit
N/A
Visualization observer readout
Local Sidereal Time
07:12:32
Azimuth
Unknown
Elevation
Unknown
Doppler factor
Unknown
Orbital elements
Apogee altitude
859.981 km
Perigee altitude
819.238 km
Semi-major axis
7,217.747 km
Eccentricity
0.00282
Inclination
100.0152°
RAAN
34.0551°
Arg. of periapsis
106.764°
True anomaly
253.35284°
Mean anomaly
253.6629°
Eccentric anomaly
253.50784°
Mean motion
3.53949 °/min
Orbital period
101.71 mins
BSTAR
0.0010787
Loading maneuver chart data...
Computing Atmospheric mass density...

Documentation

Showing up to 5 results
|